Content
SEND FEEDBACK

Daily
Averages
Monthly
Summary
United States of America

DE QUEEN, ARKANSAS


Home > North America > United States > Arkansas
Elevation: 420 feet     Latitude: 34 02N     Longitude: 094 20W

WEATHER
 
SELECT A DAY
Number of Records: 156,108;   Date Range: 7/12/01 - 9/9/14
 
SHARE

PRINT THIS DATA

[ ← Previous Day ]
WEATHER ALMANAC - FEBRUARY 13, 2013
[ Next Day → ]
[ °C ]   °F
Weather ElementAverageHighLow
Temperature41.2 °F54 °F (3:53 pm)33.1 °F (10:59 pm)
Dewpoint35.1 °F37.9 °F (1:53 am)30.9 °F (11:53 pm)
Humidity80.6 %96 % (9:53 pm)51 % (3:53 pm)
Barometer30.03 in30.09 in (10:29 am)29.94 in (1:53 am)
Wind Speed4.2 mph12.7 mph (3:53 pm)
Weather ElementAverage
Visibility7.8 mi
Wind DirectionSSE (148.9 °)

Weather ElementTotal
Precipitation---
Heating Degree Days21.5 (Base 65)
Averaged from 37 records on February 13, 2013
WEATHER CONDITIONS BREAKOUT
WIND DIRECTION BREAKOUT
WEATHER BY HOUR - FEBRUARY 13, 2013
[ °C ]   °F
Local TimeTemperatureDewpointHumidityBarometerVisibilityWind DirectionWind SpeedGust SpeedPrecipitationEventsConditions
1:53 AM39.9 °F37.9 °F93 %29.94 in10.0 miCalmOvercast
2:53 AM39.0 °F36.0 °F89 %29.95 in10.0 miNW (310°)6.9 mphPartly Cloudy
3:17 AM39.0 °F36.0 °F89 %29.96 in10.0 miNNW (330°)6.9 mphMostly Cloudy
3:53 AM39.0 °F35.1 °F86 %29.97 in10.0 miNW (310°)5.8 mphMostly Cloudy
4:29 AM37.9 °F35.1 °F89 %29.98 in10.0 miCalmMostly Cloudy
4:51 AM39.2 °F35.6 °F87 %29.98 in10.0 miSW (230°)3.5 mphOvercast
4:53 AM39.0 °F36.0 °F89 %29.98 in10.0 miSW (230°)4.6 mphOvercast
5:53 AM39.9 °F37.0 °F89 %30.01 in10.0 miWSW (250°)6.9 mphOvercast
6:53 AM39.9 °F37.0 °F89 %30.03 in10.0 miWest (260°)5.8 mphOvercast
7:53 AM39.9 °F37.0 °F89 %30.05 in9.0 miWNW (290°)6.9 mphOvercast
8:53 AM42.1 °F37.0 °F82 %30.08 in10.0 miNW (320°)10.4 mphOvercast
9:30 AM44.1 °F37.0 °F76 %30.08 in10.0 miWNW (300°)8.1 mphScattered Clouds
9:53 AM46.0 °F37.9 °F73 %30.08 in10.0 miNW (320°)6.9 mphPartly Cloudy
10:29 AM46.0 °F36.0 °F68 %30.09 in10.0 miWNW (300°)8.1 mphMostly Cloudy
10:53 AM46.0 °F35.1 °F66 %30.09 in10.0 miVariable5.8 mphOvercast
11:38 AM48.0 °F35.1 °F61 %30.09 in10.0 miNW (310°)8.1 mphMostly Cloudy
11:53 AM48.0 °F36.0 °F63 %30.08 in10.0 miNW (310°)5.8 mphMostly Cloudy
12:53 PM50.0 °F36.0 °F59 %30.05 in10.0 miNorthScattered Clouds
1:53 PM53.1 °F36.0 °F52 %30.02 in10.0 miWest (270°)10.4 mphClear
2:53 PM53.1 °F36.0 °F52 %30.00 in10.0 miSW (220°)9.2 mphScattered Clouds
3:53 PM54.0 °F36.0 °F51 %30.00 in10.0 miWSW (250°)12.7 mphClear
4:53 PM53.1 °F36.0 °F52 %29.99 in10.0 miWSW (240°)10.4 mphClear
5:53 PM50.0 °F35.1 °F57 %30.00 in10.0 miSW (220°)5.8 mphClear
6:53 PM44.1 °F35.1 °F71 %30.00 in10.0 miWSW (240°)3.5 mphClear
7:53 PM41.0 °F36.0 °F82 %30.02 in10.0 miCalmClear
8:53 PM37.9 °F35.1 °F89 %30.03 in10.0 miCalmClear
9:47 PM35.6 °F33.8 °F93 %30.04 in1.8 miCalmClear
9:53 PM35.1 °F34.0 °F96 %30.04 in1.0 miCalmClear
10:00 PM35.1 °F34.0 °F96 %30.04 in3.0 miCalmClear
10:24 PM35.1 °F33.1 °F92 %30.04 in1.8 miCalmClear
10:37 PM34.0 °F33.1 °F96 %30.04 in3.0 miCalmClear
10:53 PM34.0 °F32.0 °F92 %30.04 in7.0 miCalmClear
10:59 PM33.1 °F32.0 °F96 %30.04 in1.5 miCalmClear
11:08 PM33.1 °F32.0 °F96 %30.05 in0.8 miCalmClear
11:15 PM33.1 °F32.0 °F96 %30.05 in1.5 miCalmClear
11:24 PM33.1 °F32.0 °F96 %30.05 in3.0 miCalmClear
11:53 PM33.1 °F30.9 °F92 %30.05 in5.0 miCalmClear
Hourly data recorded from KDEQ, located miles away from De Queen, Arkansas







STORIES FROM OUR PARTNERS